[[{"header":{"parameterUnit":"m.s-1","parameterCategory":1,"la1":30.2991,"la2":30.254,"lo1":-89.0895,"lo2":-89.0444,"dy":0.0017,"dx":0.0017,"nx":28,"ny":28,"refTime":"2025-08-19T21:00:00:Z","depth":0,"parameterNumber":2,"parameterNumberName":"U-component_of_WINDS"},"data":[0,0,0,0,0,0,0,0,0,0,0,0,0,0,0,0,0,0,0,0,0,0,0,0,0,0,0,0,0,0,0,0,0,0,0,0,0,0,0,0,0,0,0,0,0,0,0,0,0,0,0,0,0,0,0,0,0,0,2.9655,2.9656,0,2.9662,2.9662,2.9662,2.9568,2.9565,2.9562,2.956,2.957,2.9573,2.9575,0,0,0,0,0,0,0,0,0,0,0,0,0,2.9566,2.9568,2.9655,2.9656,2.9656,2.9662,2.9662,2.9662,2.9568,2.9565,2.9562,2.9559,2.9569,2.9572,2.9576,0,0,0,0,0,0,0,0,0,0,0,0,0,2.9592,2.9568,2.9655,2.9609,2.9605,2.9662,2.9662,2.9662,2.9569,2.9565,2.9561,2.9557,2.9568,2.9572,2.9576,2.9678,0,0,2.9588,2.959,0,0,0,0,0,0,0,0,2.959,2.9595,2.9616,2.9613,2.9608,2.961,2.9634,2.9667,2.957,2.9583,2.956,2.9556,2.9587,2.9589,2.9599,2.9678,2.9679,2.9589,2.9591,2.9593,2.9594,0,0,0,0,0,0,0,2.9589,2.9594,2.9658,2.9617,2.9612,2.959,2.9589,2.964,2.9606,2.9581,2.9574,2.9576,2.9584,2.9595,2.9598,2.9679,2.9588,2.9592,2.9594,2.9596,2.9839,2.9843,0,0,0,0,0,0,2.9593,2.9593,2.9658,2.9658,2.9589,2.9594,2.9594,2.9613,2.9606,2.9601,2.958,2.9572,2.959,2.9594,2.9598,2.9714,2.9593,2.9596,2.9599,2.9835,2.984,2.9845,0,0,0,0,0,0,2.9591,2.9599,2.9657,2.9624,2.963,2.96,2.9623,2.9615,2.9626,2.9604,2.9598,2.9597,2.9587,2.9593,2.9658,2.9713,2.9598,2.9602,2.983,2.9837,2.9842,2.9947,0,0,0,0,0,0,2.9589,2.9599,2.9637,2.9625,2.9632,2.9716,2.9626,2.9618,2.9633,2.9623,2.9619,2.9614,2.9585,2.9652,2.9662,2.9716,2.9605,2.9825,2.9833,2.984,2.9939,2.9956,2.9971,0,0,0,0,0,2.9586,2.9667,2.9639,2.9647,2.9678,2.972,2.9723,2.9686,2.9638,2.9675,2.9661,2.9614,2.9706,2.966,2.967,2.9726,2.9822,2.9831,2.984,2.9931,2.9953,2.9971,0,0,0,0,0,0,2.9687,2.9665,2.9633,2.9713,2.9719,2.9704,2.9749,2.9711,2.9731,2.9721,2.9675,2.9675,2.9747,2.9744,2.9693,2.9823,2.9755,2.9767,2.9822,2.9842,2.9858,2.9855,2.9608,0,0,0,0,0,2.9719,2.9754,2.9733,2.9806,2.981,2.978,2.9797,2.9768,2.9772,2.9774,2.9764,2.9772,2.9801,2.9822,2.9849,2.9939,2.9936,2.9983,2.9999,3.0013,3.0022,3.0067,3.0087,2.9875,2.9875,2.9874,0,0,2.9785,2.9777,2.9802,2.9826,2.9826,2.9863,2.9782,2.9826,2.9852,2.9781,2.984,2.9834,2.9839,2.9916,2.995,2.9916,3.0081,3.0025,3.0035,3.0037,3.0079,3.0099,3.0117,2.9881,2.988,2.9879,0,0,2.9922,2.9921,2.9979,2.9982,2.9983,2.9963,2.9977,2.9968,2.996,3.0019,2.9966,2.9998,3.0052,3.0056,3.0066,3.0206,3.0162,3.0216,3.03,3.0344,3.0361,3.0375,3.0422,3.0439,3.0226,3.0227,3.0227,0,3.0003,3.0055,3.0015,3.0061,3.0072,3.0009,3.0068,3.0073,3.0084,3.0094,3.0055,3.0119,3.0119,3.0195,3.0228,3.024,3.0254,3.0214,3.0361,3.0376,3.0388,3.0432,3.045,3.0233,3.0232,3.0231,3.0231,0,3.0154,3.0192,3.0239,3.0249,3.0267,3.032,3.0287,3.031,3.0281,3.0264,3.0325,3.0322,3.0345,3.0362,3.0335,3.0434,3.0412,3.0369,3.0299,3.0415,3.0456,3.0473,3.0242,3.0239,3.0238,3.0236,0,0,3.0352,3.0339,3.0357,3.036,3.0358,3.0386,3.0437,3.0458,3.0477,3.0489,3.0528,3.0575,3.0534,3.0545,3.0517,3.0557,3.0664,3.0508,3.0507,3.0534,3.077,3.08,3.082,3.0637,3.064,3.0642,3.0768,0,3.0483,3.0565,3.053,3.0616,3.0649,3.059,3.0633,3.0637,3.0624,3.0651,3.0637,3.0669,3.0614,3.062,3.0657,3.0643,3.071,3.0634,3.0672,3.0674,3.0668,3.0842,3.0874,3.0993,3.0784,3.0787,3.0789,0,3.0645,3.066,3.0748,3.0738,3.0751,3.0791,3.0807,3.0834,3.0837,3.0825,3.0837,3.0801,3.0849,3.0783,3.0848,3.0797,3.0812,3.0807,3.0811,3.081,3.0735,3.0842,3.103,3.1047,3.0814,3.0812,3.081,0,3.0776,3.0819,3.0877,3.0882,3.0873,3.0902,3.09,3.0899,3.0914,3.0929,3.0938,3.096,3.0971,3.0989,3.096,3.0915,3.1028,3.096,3.1018,3.1019,3.1041,3.104,3.1231,3.1058,3.1057,3.1057,3.1057,0,3.0923,3.0978,3.0935,3.097,3.1031,3.0992,3.1053,3.1045,3.1045,3.1077,3.103,3.1062,3.1023,3.1051,3.1029,3.1085,3.1092,3.1082,3.1075,3.1084,3.1085,3.109,3.1079,3.1062,3.1061,3.106,3.1059,0,3.1078,3.1051,3.1109,3.1096,3.1094,3.1139,3.1128,3.116,3.1144,3.1186,3.1194,3.1169,3.12,3.1173,3.1204,3.1189,3.1262,3.1245,3.126,3.1254,3.1311,3.1305,3.1509,3.1533,3.1348,3.135,3.1352,0,3.1171,3.1212,3.1202,3.122,3.122,3.125,3.1265,3.1229,3.1246,3.1252,3.1284,3.131,3.1329,3.1381,3.1366,3.1389,3.137,3.144,3.1373,3.138,3.1366,3.1362,3.1365,3.1452,3.1454,3.1456,3.1458,0,3.1338,3.1322,3.1344,3.1362,3.138,3.1393,3.1402,3.1419,3.1382,3.1404,3.1434,3.1449,3.1479,3.1505,3.1523,3.1522,3.1483,3.148,3.1493,3.1501,3.1506,3.15,3.1293,3.1474,3.1472,3.1471,3.147,3.147,3.1462,3.1494,3.1492,3.1518,3.1521,3.153,3.1559,3.1546,3.157,3.159,3.1569,3.1605,3.1607,3.1627,3.163,3.1658,3.1628,3.1649,3.1654,3.1659,3.1665,3.1505,3.1662,3.1661,3.1661,3.166,3.166,0,3.1623,3.1618,3.1643,3.1656,3.1676,3.1639,3.1647,3.1666,3.1698,3.1703,3.1722,3.1756,3.1782,3.1769,3.1791,3.1815,3.1798,3.1822,3.1818,3.1818,3.1692,3.1676,3.1835,3.1835,3.1835,3.1835,3.1835,3.1835,3.1708,3.1761,3.1746,3.1799,3.1795,3.1829,3.1836,3.1844,3.1847,3.1887,3.1907,3.1899,3.1896,3.1918,3.1939,3.1935,3.1944,3.1973,3.1962,3.1844,3.1827,3.181,3.1795,3.1976,3.1977,3.2085,3.2086,3.2087]},{"header":{"parameterUnit":"m.s-1","parameterCategory":1,"la1":30.2991,"la2":30.254,"lo1":-89.0895,"lo2":-89.0444,"dy":0.0017,"dx":0.0017,"nx":28,"ny":28,"refTime":"2025-08-19T21:00:00:Z","depth":0,"parameterNumber":3,"parameterNumberName":"V-component_of_WINDS"},"data":[0,0,0,0,0,0,0,0,0,0,0,0,0,0,0,0,0,0,0,0,0,0,0,0,0,0,0,0,0,0,0,0,0,0,0,0,0,0,0,0,0,0,0,0,0,0,0,0,0,0,0,0,0,0,0,0,0,0,2.8076,2.8077,0,2.8177,2.8178,2.818,2.8105,2.8102,2.8099,2.8096,2.8192,2.8198,2.8203,0,0,0,0,0,0,0,0,0,0,0,0,0,2.7813,2.7818,2.8076,2.8078,2.8079,2.8177,2.8178,2.818,2.8106,2.8102,2.8098,2.8094,2.8191,2.8197,2.8204,0,0,0,0,0,0,0,0,0,0,0,0,0,2.7922,2.782,2.8076,2.8054,2.8053,2.8177,2.8179,2.818,2.8106,2.8102,2.8097,2.8092,2.8188,2.8196,2.8205,2.8354,0,0,2.823,2.8234,0,0,0,0,0,0,0,0,2.7916,2.7931,2.8056,2.8056,2.8055,2.8124,2.8121,2.8238,2.8108,2.8086,2.8095,2.809,2.8173,2.8182,2.8212,2.8359,2.8363,2.8231,2.8236,2.824,2.8242,0,0,0,0,0,0,0,2.7908,2.7927,2.8116,2.8058,2.8057,2.8037,2.8047,2.8143,2.8155,2.8087,2.8082,2.8096,2.8172,2.8204,2.8213,2.8364,2.8231,2.8238,2.8244,2.8247,2.8638,2.8643,0,0,0,0,0,0,2.7904,2.7921,2.8113,2.8119,2.7972,2.8045,2.8057,2.8106,2.8154,2.8157,2.81,2.8092,2.8192,2.8204,2.8217,2.8395,2.824,2.8248,2.8253,2.8633,2.8639,2.8645,0,0,0,0,0,0,2.7898,2.7921,2.8109,2.8019,2.8041,2.8055,2.8112,2.8111,2.8143,2.8164,2.8165,2.8131,2.8189,2.8205,2.8321,2.8397,2.8251,2.8259,2.8626,2.8635,2.8642,2.8752,0,0,0,0,0,0,2.7891,2.792,2.7978,2.8021,2.8046,2.8214,2.8116,2.8116,2.8159,2.8149,2.8193,2.8195,2.8186,2.8309,2.8329,2.8406,2.8266,2.862,2.863,2.864,2.8742,2.8763,2.8781,0,0,0,0,0,2.7882,2.8004,2.7982,2.8005,2.812,2.8218,2.8232,2.8221,2.8165,2.8223,2.8236,2.8194,2.8385,2.8321,2.8344,2.8424,2.8615,2.8627,2.8639,2.8733,2.8759,2.878,0,0,0,0,0,0,2.7967,2.8009,2.7985,2.8125,2.8169,2.8205,2.8278,2.8249,2.8308,2.8296,2.8277,2.8288,2.841,2.8428,2.8356,2.8571,2.8491,2.8508,2.8555,2.8579,2.8599,2.8591,2.8273,0,0,0,0,0,2.8003,2.8082,2.8113,2.8233,2.8256,2.8264,2.8306,2.8294,2.8338,2.8355,2.8377,2.8419,2.8489,2.8535,2.86,2.8744,2.8752,2.881,2.883,2.8846,2.886,2.8938,2.8964,2.8685,2.8684,2.8684,0,0,2.8076,2.8109,2.8159,2.8251,2.8284,2.8364,2.828,2.8368,2.8426,2.8368,2.848,2.8497,2.8543,2.8674,2.8732,2.8693,2.8939,2.8861,2.8874,2.888,2.8953,2.8979,2.9003,2.8693,2.8691,2.869,0,0,2.8251,2.8284,2.8388,2.8423,2.8475,2.8479,2.8504,2.8546,2.8556,2.8668,2.8626,2.8694,2.8815,2.8849,2.8883,2.9072,2.9035,2.9093,2.9195,2.9271,2.9293,2.9312,2.9379,2.9404,2.9108,2.9108,2.9108,0,2.8335,2.8456,2.8444,2.8537,2.8578,2.8531,2.8635,2.8669,2.8738,2.8767,2.8722,2.8873,2.89,2.9038,2.9085,2.9113,2.914,2.9088,2.9291,2.931,2.9328,2.9392,2.9417,2.9115,2.9114,2.9113,2.9113,0,2.8557,2.8641,2.8719,2.879,2.884,2.8937,2.8938,2.899,2.8973,2.8982,2.9096,2.9128,2.9199,2.923,2.9214,2.9366,2.934,2.9294,2.9213,2.9362,2.9421,2.9446,2.9125,2.9122,2.912,2.9118,0,0,2.8787,2.8852,2.8881,2.8913,2.8967,2.9031,2.9125,2.9197,2.9242,2.9291,2.9369,2.9472,2.943,2.9468,2.9455,2.9521,2.9669,2.9466,2.9467,2.9503,2.9838,2.9873,2.9902,2.9645,2.965,2.9653,2.9834,0,2.8965,2.9133,2.9126,2.9282,2.936,2.9317,2.9399,2.944,2.945,2.9516,2.9526,2.96,2.9538,2.9561,2.9625,2.9638,2.9736,2.9624,2.9716,2.9719,2.9706,2.9933,2.997,3.0139,2.9857,2.9861,2.9864,0,2.9194,2.9255,2.942,2.9463,2.9495,2.957,2.9635,2.9699,2.9744,2.9747,2.979,2.9767,2.986,2.9778,2.9906,2.983,2.9867,2.9879,2.9885,2.9893,2.9801,2.9946,3.0193,3.0218,2.9901,2.9898,2.9895,0,2.9346,2.9468,2.9583,2.9612,2.9665,2.9718,2.9743,2.9783,2.9827,2.9883,2.9911,2.9977,3.0012,3.0063,3.0056,2.9997,3.0187,3.0104,3.019,3.0191,3.0232,3.023,3.0488,3.0256,3.0256,3.0255,3.0255,0,2.9545,2.9648,2.9652,2.9723,2.9836,2.9826,2.9937,2.9955,2.9992,3.0063,3.0029,3.0096,3.0085,3.0151,3.0147,3.0254,3.027,3.0273,3.0271,3.0277,3.0276,3.03,3.0288,3.0262,3.0261,3.0259,3.0258,0,2.9734,2.9741,2.9863,2.9905,2.9918,2.9999,3.0033,3.0099,3.0107,3.0198,3.0219,3.023,3.0308,3.0307,3.0394,3.039,3.0522,3.0505,3.0507,3.0504,3.0591,3.0583,3.0874,3.0911,3.0655,3.0658,3.066,0,2.986,2.9939,2.9989,3.0037,3.0065,3.0141,3.0186,3.0178,3.0226,3.0284,3.0343,3.0417,3.0476,3.0601,3.0616,3.0682,3.0667,3.0764,3.0677,3.068,3.0668,3.0664,3.0672,3.0781,3.0784,3.0787,3.0789,0,3.0084,3.0084,3.0152,3.0223,3.0279,3.0333,3.0382,3.0422,3.0419,3.0475,3.0555,3.0601,3.0691,3.0765,3.0829,3.0851,3.0819,3.0816,3.084,3.0846,3.0845,3.0847,3.0554,3.0809,3.0807,3.0806,3.0805,3.0804,3.0245,3.0313,3.036,3.0437,3.0475,3.0522,3.0587,3.0604,3.0671,3.0746,3.0736,3.0826,3.0867,3.0951,3.0979,3.1046,3.1012,3.1046,3.1055,3.1063,3.1073,3.0834,3.1058,3.1057,3.1057,3.1056,3.1056,0,3.0467,3.0496,3.0567,3.064,3.07,3.0668,3.0721,3.0773,3.0853,3.0896,3.0956,3.1048,3.1119,3.1141,3.1209,3.1259,3.1247,3.1278,3.1274,3.1279,3.11,3.1073,3.1287,3.1287,3.1287,3.1287,3.1287,3.1287,3.059,3.0704,3.071,3.0841,3.0868,3.0957,3.0991,3.1034,3.1068,3.1174,3.1234,3.1248,3.1282,3.1353,3.1417,3.1421,3.1448,3.1485,3.1483,3.1315,3.1292,3.127,3.1244,3.1491,3.1491,3.1657,3.1658,3.1659]}]]